Location: Saint-Usage
(47.1052°N, 5.2587°E)
Time: 13:50:15
(UTC+02:00)

ISS - Pass Details

Date: 21 September 2021
Orbit: 417 x 423 km, 51.6° (Epoch: 17 October)

Event Time Altitude Azimuth Distance (km) Brightness Sun altitude
Rises 19:58:22 0° 234° (SW) 2,352 0.9 -4.2°
Reaches altitude 10° 20:00:28 10° 231° (SW) 1,492 -0.2 -4.6°
Maximum altitude 20:03:46 62° 150° (SSE) 475 -3.6 -5.1°
Drops below altitude 10° 20:07:07 10° 69° (ENE) 1,502 -1.5 -5.7°
Enters shadow 20:08:10 - 67° (ENE) 1,937 -0.9 -5.9°
